Tracking 31027 objects as of 19-Jul-2025
HD Live streaming from Space Station
objects crossing your sky now

STARLINK-30367

Track STARLINK-30367 now!
10-day predictions
STARLINK-30367 is classified as:


NORAD ID: 57791
Int'l Code: 2023-134W
Perigee: 565.5 km
Apogee: 567.0 km
Inclination: 43.0 °
Period: 95.8 minutes
Semi major axis: 6937 km
RCS: Unknown
Launch date: September 4, 2023
Source: United States (US)
Launch site: AIR FORCE EASTERN TEST RANGE (AFETR)
Your satellite tracking list
SL-8 R/B
Track 1 satellite(s)




NASA's NSSDC Master Catalog

Two Line Element Set (TLE):
1 57791U 23134W   25199.54985607  .00000403  00000-0  44885-4 0  9992
2 57791  43.0039  29.4902 0001050 262.6202  97.4521 15.02533715104254
Source of the keplerian elements: AFSPC